Flag for Canada Weather past 2 weeks in Clarington, Ontario, Canada

Now
59 °F

Fog.


Feels Like: N/A
Forecast: 64 / 81 °F
Wind: N/A

Location: Peterborough Airport

Current Time: Aug 31, 2015 at 2:48:23 AM

Latest Report: Aug 31, 2015 at 2:00 AM


Visibility: 3 mi

Pressure: 29.99 "Hg

Humidity: 100%

Dew point: 59 °F

Location of ClaringtonLocation

Historic Weather in Clarington — Graph

°F

Clarington temperature yesterday

Maximum temperature yesterday: 77 °F (at 2:53 PM)
Minimum temperature yesterday: 59 °F (at 3:01 AM)
Average temperature yesterday: 67 °F

Past Weeks' High & Low Weather Summary

 TemperatureHumidityPressure
High86 °F (Aug 17, 2:00 PM)100% (Aug 16, 6:00 AM)30.23 "Hg (Aug 16, 6:00 AM)
Low43 °F (Aug 28, 4:49 AM)47% (Aug 23, 5:00 PM)29.75 "Hg (Aug 24, 6:02 AM)
Average65 °F84%30.01 "Hg
* Reported Aug 16 5:00 AM — Aug 31 1:00 AM, Clarington, Weather by CustomWeather, © 2015

Note: Actual official high and low records may vary slightly from our data, if they occured in-between our weather recording intervals... More about our weather records

Advertising

Clarington weather history for previous 24 hours

 ConditionsComfort  
Time TempWeatherWind HumidityBarometerVisibility
1:00 AM
Mon, Aug 31
61 °FFog.N/A100%30.01 "Hg4 mi
12:00 AM64 °FClear.N/A88%30.00 "Hg9 mi
11:00 PM
Sun, Aug 30
63 °FClear.N/A100%30.01 "Hg8 mi
10:00 PM66 °FPassing clouds.N/A94%30.01 "Hg9 mi
9:00 PM68 °FOvercast.N/A88%30.02 "Hg9 mi
8:00 PM68 °FSunny.N/A88%30.01 "Hg9 mi
7:00 PM73 °FPartly sunny.N/A78%30.00 "Hg9 mi
6:00 PM75 °FScattered clouds.N/A74%30.01 "Hg9 mi
5:00 PM75 °FBroken clouds.N/A74%30.01 "Hg9 mi
4:00 PM75 °FMostly cloudy.N/A69%30.03 "Hg9 mi
3:00 PM77 °FBroken clouds.N/A65%30.04 "Hg9 mi
2:53 PM77 °FBroken clouds.N/A61%30.05 "Hg8 mi
2:00 PM75 °FPartly sunny.N/A65%30.06 "Hg9 mi
1:00 PM73 °FPartly sunny.N/A69%30.07 "Hg9 mi
12:00 PM72 °FOvercast.N/A73%30.09 "Hg9 mi
11:00 AM70 °FOvercast.N/A78%30.10 "Hg9 mi
10:00 AM68 °FOvercast.N/A83%30.10 "Hg9 mi
9:00 AM64 °FFog.N/A94%30.10 "Hg6 mi
8:00 AM63 °FFog.N/A100%30.09 "Hg4 mi
7:00 AM61 °FFog.N/A100%30.08 "Hg4 mi
6:00 AM59 °FFog.N/A100%30.07 "Hg4 mi
5:00 AM59 °FFog.N/A100%30.06 "Hg2 mi
4:04 AM59 °FFog.N/A100%30.07 "Hg1 mi
4:01 AM59 °FFog.N/A94%30.07 "Hg1 mi
3:01 AM59 °FFog.N/A100%30.07 "Hg1 mi
2:00 AM61 °FFog.N/A100%30.08 "Hg1 mi
Weather by CustomWeather, © 2015

See weather overviewHow to use our weather pages